OBJECT AC, 64554

Orbit data source: Space-Track

You're viewing an Uncataloged Satellite

Recently launched and/or uncataloged satellites may have evolving metadata. Metadata may include but not limited to: Owner, Maufacturer, Bus, Motor, and Mission.

OBJECT AC, 64554 is a satellite in SSO that was launched on Mon, 23 Jun 2025 UTC via an FALCON 9 launch vehicle from the Air Force Western Test Range (AFWTR). Unknown objects in Earth's orbit typically refer to objects detected orbiting the Earth but have not yet been identified or cataloged. These objects could be anything from previously untracked satellites, spent rocket stages, debris from satellite collisions, or even natural meteoroids temporarily captured by Earth's gravity.

Loading next visibility...
Identifier
64554, 2025-135AC
Orbit
SSO
Country
Flag of TBDTBD
Related business
None
Manufacturer
Unknown
Mission
Operational Commercial Imaging
Bus & Motor
Unknown
Mass
Unknown
Launch date (UTC)
2025-06-23 (1 year ago)
Launch vehicle
FALCON 9
Launch site
Air Force Western Test Range (AFWTR)
Object type
Unknown
Shape & HBR
Box, 0.1 m
Radar Cross Section
0.015 m², Medium (>0.1 m² and < 1m²)

Expand to show TLE details & history
Last TLE update: 11 hours ago

TLE from 11 hours ago
0 OBJECT AC
1 64554U 25135AC  26178.30223375  .00006869  00000-0  23089-3 0  9993
2 64554  97.4609 295.4970 0001061 254.4174 105.6949 15.31148540 56559
Epoch: 2026-06-27T07:15Z
TLE epoch observation values (Epoch: 2026-06-27T07:15:12.996Z)
Latitude
-0.00009°
Longitude
-88.72548°
Altitude
475.685 km
Speed
7.628 km/s
True Right ascension
19h 41m 59s
True Declination
0° 00' 00"
Sunlit
Object was in full shadow at epoch
Visualization orbit readout
Latitude
Unknown
Longitude
Unknown
Altitude
Unknown
Speed
Unknown
Apparent Right ascension
Unknown
Apparent Declination
Unknown
Sunlit
N/A
Visualization observer readout
Local Sidereal Time
05:59:23
Azimuth
Unknown
Elevation
Unknown
Doppler factor
Unknown
Orbital elements
Apogee altitude
470.064 km
Perigee altitude
468.611 km
Semi-major axis
6,847.475 km
Eccentricity
0.00011
Inclination
97.4609°
RAAN
295.497°
Arg. of periapsis
254.4174°
True anomaly
105.7066°
Mean anomaly
105.6949°
Eccentric anomaly
105.70075°
Mean motion
3.83043 °/min
Orbital period
93.98 mins
BSTAR
0.00023089
Loading maneuver chart data...
Computing Atmospheric mass density...
Loading historical data...
Loading historical data...
Loading historical data...
Loading historical data...
Loading historical data...
Loading historical data...
Loading historical data...

Documentation

Showing up to 5 results
|